Simultaneous Nadir Overpasses (SNOs) Predictions

Prediction of SNOs between AQUA and GOES-15 Satellite Orbit:

Table of predicted SNOs for the next 14.0 days since TLE Epoch: 7/29/2016
Index Date Time (AQUA) AQUA Lat,Lon GOES-15 Lat,Lon Distance(km) Time Diff (sec)
1 07/31/2016 10:25:32 -0.73,-132.67 -0.23,-134.93 257.13 80
2 07/31/2016 22:46:56 -0.40,-137.86 0.25,-134.92 334.55 80
3 08/02/2016 22:34:45 0.25,-134.91 0.25,-134.84 7.58 47
4 08/04/2016 22:22:33 0.85,-131.95 0.25,-134.76 319.81 80
5 08/05/2016 10:43:47 0.27,-137.10 -0.26,-134.73 270.57 80
6 08/07/2016 10:31:37 -0.39,-134.15 -0.26,-134.64 56.18 80
7 08/09/2016 10:19:25 -0.99,-131.19 -0.26,-134.55 382.37 80
8 08/09/2016 22:40:48 -0.12,-136.38 0.27,-134.54 209.61 80
9 08/11/2016 22:28:36 0.49,-133.42 0.28,-134.44 115.82 80
10 08/12/2016 10:49:52 0.59,-138.58 -0.29,-134.40 474.96 80




NCC Satellite Simultaneous Nadir Overpasses (SNOs) Prediction Service
